[[{"header":{"parameterUnit":"m.s-1","parameterCategory":1,"la1":30.2991,"la2":30.254,"lo1":-89.0895,"lo2":-89.0444,"dy":0.0017,"dx":0.0017,"nx":28,"ny":28,"refTime":"2025-05-14T21:00:00:Z","depth":0,"parameterNumber":2,"parameterNumberName":"U-component_of_WINDS"},"data":[0,0,0,0,0,0,0,0,0,0,0,0,0,0,0,0,0,0,0,0,0,0,0,0,0,0,0,0,0,0,0,0,0,0,0,0,0,0,0,0,0,0,0,0,0,0,0,0,0,0,0,0,0,0,0,0,0,0,2.5105,2.5105,0,2.5128,2.5128,2.5129,2.5079,2.5078,2.5076,2.5075,2.5098,2.51,2.5102,0,0,0,0,0,0,0,0,0,0,0,0,0,2.5018,2.502,2.5105,2.5105,2.5106,2.5128,2.5128,2.5129,2.508,2.5078,2.5076,2.5074,2.5098,2.51,2.5103,0,0,0,0,0,0,0,0,0,0,0,0,0,2.505,2.502,2.5105,2.5084,2.5082,2.5128,2.5128,2.5129,2.508,2.5078,2.5075,2.5073,2.5097,2.51,2.5103,2.517,0,0,2.5113,2.5114,0,0,0,0,0,0,0,0,2.5048,2.5053,2.5087,2.5085,2.5084,2.5098,2.5106,2.5143,2.5081,2.5081,2.5075,2.5072,2.51,2.5103,2.5112,2.5172,2.5173,2.5113,2.5115,2.5116,2.5117,0,0,0,0,0,0,0,2.5046,2.5052,2.5114,2.5087,2.5085,2.5073,2.5075,2.5113,2.5104,2.5081,2.5077,2.508,2.5099,2.511,2.5113,2.5173,2.5113,2.5116,2.5118,2.5119,2.5287,2.5289,0,0,0,0,0,0,2.5046,2.505,2.5113,2.5115,2.506,2.5076,2.5079,2.5096,2.5103,2.5102,2.5083,2.5078,2.5105,2.5109,2.5113,2.5192,2.5116,2.5119,2.5121,2.5284,2.5287,2.529,0,0,0,0,0,0,2.5045,2.5053,2.5113,2.5082,2.5088,2.508,2.5101,2.5098,2.5108,2.5105,2.5103,2.5095,2.5104,2.5109,2.5156,2.5192,2.5121,2.5123,2.5281,2.5285,2.5289,2.535,0,0,0,0,0,0,2.5042,2.5052,2.5078,2.5083,2.509,2.5156,2.5103,2.51,2.5114,2.5108,2.5116,2.5115,2.5102,2.5152,2.5159,2.5195,2.5126,2.5278,2.5283,2.5288,2.5345,2.5356,2.5365,0,0,0,0,0,2.504,2.5095,2.508,2.5088,2.5122,2.5158,2.5162,2.5146,2.5117,2.5143,2.514,2.5115,2.5187,2.5157,2.5165,2.5202,2.5276,2.5282,2.5287,2.5341,2.5354,2.5365,0,0,0,0,0,0,2.5095,2.5095,2.5078,2.5137,2.5148,2.5149,2.5181,2.5161,2.518,2.5174,2.5154,2.5156,2.5207,2.5209,2.5176,2.5267,2.5226,2.5234,2.5264,2.5276,2.5286,2.5284,2.5129,0,0,0,0,0,2.5114,2.5143,2.5141,2.5193,2.5199,2.519,2.5204,2.5191,2.5202,2.5206,2.5207,2.5218,2.5243,2.526,2.5283,2.5345,2.5345,2.5375,2.5385,2.5393,2.54,2.5432,2.5444,2.5309,2.5309,2.5309,0,0,2.5154,2.5157,2.5177,2.5204,2.5211,2.5241,2.5194,2.5228,2.525,2.5211,2.5256,2.5257,2.5267,2.5322,2.5347,2.5326,2.5437,2.54,2.5407,2.5409,2.5439,2.5452,2.5463,2.5313,2.5312,2.5312,0,0,2.5241,2.5247,2.529,2.5298,2.5309,2.5302,2.5312,2.5317,2.5316,2.536,2.5332,2.5357,2.5401,2.541,2.542,2.5509,2.5486,2.5517,2.5569,2.5601,2.5611,2.5621,2.5652,2.5664,2.5524,2.5524,2.5524,0,2.5289,2.5333,2.5315,2.5351,2.5363,2.5329,2.5373,2.5381,2.5399,2.5408,2.5385,2.5438,2.5443,2.5499,2.5521,2.553,2.5541,2.5516,2.5611,2.5621,2.5629,2.5659,2.567,2.5528,2.5527,2.5527,2.5527,0,2.5391,2.5422,2.5456,2.5473,2.549,2.5529,2.5516,2.5535,2.552,2.5515,2.556,2.5565,2.5588,2.56,2.5586,2.5654,2.5641,2.5615,2.5573,2.5646,2.5673,2.5684,2.5533,2.5532,2.5531,2.553,0,0,2.5515,2.5521,2.5534,2.5541,2.555,2.5573,2.5611,2.5633,2.5649,2.5662,2.5692,2.573,2.5705,2.5717,2.5703,2.5731,2.5801,2.5702,2.5701,2.5719,2.5875,2.5894,2.5907,2.5786,2.5788,2.5789,2.5873,0,2.5601,2.5665,2.5649,2.5713,2.5741,2.5708,2.5741,2.575,2.5746,2.5769,2.5765,2.5791,2.5758,2.5764,2.579,2.5787,2.5832,2.5781,2.5813,2.5815,2.5811,2.5922,2.5942,2.6022,2.5884,2.5886,2.5887,0,2.571,2.5727,2.5793,2.5796,2.5807,2.5837,2.5855,2.5878,2.5887,2.5882,2.5894,2.5875,2.5911,2.5869,2.5919,2.5884,2.5897,2.5897,2.59,2.5902,2.5855,2.5926,2.6047,2.6058,2.5904,2.5903,2.5902,0,2.5792,2.5832,2.5876,2.5883,2.5889,2.591,2.5913,2.592,2.5934,2.595,2.5958,2.5978,2.5989,2.6005,2.5992,2.5962,2.6043,2.6,2.604,2.604,2.6058,2.6057,2.6181,2.6067,2.6066,2.6066,2.6066,0,2.589,2.5931,2.5913,2.5941,2.5986,2.5967,2.6013,2.6012,2.6018,2.6044,2.6017,2.6043,2.6023,2.6047,2.6037,2.6078,2.6084,2.6081,2.6077,2.6083,2.6083,2.609,2.6084,2.6069,2.6069,2.6068,2.6068,0,2.599,2.5979,2.6025,2.6026,2.6027,2.6061,2.6061,2.6086,2.6081,2.6114,2.6121,2.6112,2.6138,2.6126,2.6153,2.6146,2.62,2.6189,2.6197,2.6194,2.6234,2.623,2.6367,2.6384,2.6259,2.626,2.6261,0,2.6052,2.6083,2.6088,2.6103,2.6108,2.6134,2.6147,2.613,2.6145,2.6157,2.6181,2.6204,2.6222,2.6265,2.6261,2.6282,2.6271,2.6318,2.6274,2.6278,2.6271,2.6269,2.6272,2.6326,2.6328,2.6329,2.633,0,2.6164,2.6157,2.6178,2.6198,2.6215,2.6229,2.6241,2.6255,2.6238,2.6256,2.6283,2.6296,2.6324,2.6348,2.6365,2.6368,2.6346,2.6344,2.6354,2.636,2.6362,2.6361,2.622,2.6341,2.634,2.6339,2.6338,2.6338,2.6247,2.6273,2.6279,2.6303,2.631,2.6322,2.6345,2.6342,2.6364,2.6384,2.6373,2.6403,2.641,2.6432,2.6437,2.6461,2.6442,2.6457,2.6461,2.6465,2.647,2.6359,2.6464,2.6463,2.6463,2.6463,2.6463,0,2.6357,2.6359,2.6382,2.6399,2.6418,2.6395,2.6407,2.6424,2.6451,2.646,2.6478,2.6507,2.653,2.6527,2.6547,2.6566,2.6557,2.6572,2.657,2.6571,2.6485,2.6474,2.6579,2.6579,2.6579,2.6579,2.6579,2.6579,2.6416,2.6458,2.6452,2.6497,2.6499,2.6529,2.6537,2.6548,2.6554,2.6588,2.6607,2.6605,2.6608,2.6629,2.6648,2.6647,2.6655,2.6674,2.6669,2.6589,2.6577,2.6566,2.6556,2.6677,2.6677,2.6753,2.6754,2.6754]},{"header":{"parameterUnit":"m.s-1","parameterCategory":1,"la1":30.2991,"la2":30.254,"lo1":-89.0895,"lo2":-89.0444,"dy":0.0017,"dx":0.0017,"nx":28,"ny":28,"refTime":"2025-05-14T21:00:00:Z","depth":0,"parameterNumber":3,"parameterNumberName":"V-component_of_WINDS"},"data":[0,0,0,0,0,0,0,0,0,0,0,0,0,0,0,0,0,0,0,0,0,0,0,0,0,0,0,0,0,0,0,0,0,0,0,0,0,0,0,0,0,0,0,0,0,0,0,0,0,0,0,0,0,0,0,0,0,0,6.0024,6.0025,0,6.0053,6.0053,6.0054,5.9985,5.9982,5.998,5.9978,6.0004,6.0007,6.001,0,0,0,0,0,0,0,0,0,0,0,0,0,5.9906,5.9908,6.0024,6.0025,6.0025,6.0053,6.0054,6.0054,5.9985,5.9982,5.998,5.9977,6.0003,6.0007,6.001,0,0,0,0,0,0,0,0,0,0,0,0,0,5.9948,5.9909,6.0024,5.9994,5.9992,6.0053,6.0054,6.0054,5.9986,5.9982,5.9979,5.9976,6.0002,6.0006,6.001,6.0101,0,0,6.0023,6.0025,0,0,0,0,0,0,0,0,5.9946,5.9952,5.9998,5.9996,5.9994,6.0012,6.0021,6.007,5.9986,5.9988,5.9978,5.9974,6.0009,6.0013,6.0025,6.0102,6.0103,6.0023,6.0026,6.0028,6.0029,0,0,0,0,0,0,0,5.9943,5.9951,6.0036,5.9999,5.9996,5.9978,5.998,6.003,6.0016,5.9987,5.9983,5.9987,6.0007,6.0021,6.0025,6.0104,6.0023,6.0027,6.0029,6.0031,6.0256,6.0259,0,0,0,0,0,0,5.9944,5.9949,6.0035,6.0036,5.9961,5.9983,5.9985,6.0009,6.0016,6.0014,5.999,5.9984,6.0016,6.0021,6.0026,6.0132,6.0027,6.0031,6.0034,6.0252,6.0257,6.0261,0,0,0,0,0,0,5.9942,5.9953,6.0034,5.9991,6.0,5.9988,6.0016,6.0012,6.0026,6.0018,6.0014,6.0007,6.0014,6.002,6.0083,6.0132,6.0033,6.0037,6.0248,6.0254,6.0259,6.0346,0,0,0,0,0,0,5.9939,5.9952,5.9988,5.9993,6.0003,6.0092,6.0019,6.0015,6.0033,6.0026,6.0033,6.0031,6.0011,6.0077,6.0087,6.0136,6.004,6.0244,6.0251,6.0257,6.0339,6.0354,6.0367,0,0,0,0,0,5.9935,6.0011,5.999,6.0001,6.0047,6.0095,6.01,6.0078,6.0038,6.0072,6.0067,6.003,6.0125,6.0084,6.0095,6.0146,6.0241,6.0249,6.0256,6.0333,6.0351,6.0366,0,0,0,0,0,0,6.001,6.0011,5.9988,6.0068,6.0082,6.0083,6.0126,6.0098,6.0123,6.0114,6.0084,6.0086,6.0155,6.0156,6.0111,6.0233,6.0176,6.0186,6.023,6.0247,6.0261,6.0259,6.0043,0,0,0,0,0,6.0037,6.0077,6.0074,6.0145,6.0153,6.0139,6.0159,6.014,6.0153,6.0158,6.0157,6.0171,6.0203,6.0225,6.0255,6.0338,6.0339,6.0378,6.0392,6.0404,6.0413,6.0457,6.0475,6.0287,6.0286,6.0286,0,0,6.0091,6.0096,6.0123,6.016,6.0169,6.021,6.0144,6.019,6.022,6.0165,6.0225,6.0224,6.0237,6.0311,6.0343,6.0314,6.0465,6.0414,6.0423,6.0426,6.0467,6.0485,6.0501,6.0292,6.0291,6.029,0,0,6.021,6.0219,6.0278,6.0288,6.0303,6.0293,6.0307,6.0313,6.0311,6.037,6.033,6.0364,6.0421,6.0431,6.0444,6.0567,6.0534,6.0577,6.065,6.0693,6.0708,6.0721,6.0765,6.0781,6.0586,6.0587,6.0587,0,6.0275,6.0337,6.0312,6.0361,6.0378,6.0331,6.039,6.0401,6.0424,6.0437,6.0404,6.0474,6.0479,6.0554,6.0585,6.0596,6.0611,6.0577,6.0708,6.0721,6.0732,6.0774,6.079,6.0592,6.0591,6.0591,6.059,0,6.0416,6.0459,6.0505,6.053,6.0552,6.0606,6.0588,6.0613,6.0592,6.0585,6.0646,6.065,6.068,6.0696,6.0676,6.0768,6.075,6.0713,6.0655,6.0756,6.0794,6.081,6.0599,6.0597,6.0596,6.0595,0,0,6.0585,6.0595,6.0612,6.0623,6.0635,6.0667,6.0718,6.0748,6.077,6.0787,6.0829,6.0878,6.0844,6.0858,6.0838,6.0876,6.0973,6.0835,6.0834,6.0861,6.1076,6.1104,6.1123,6.0951,6.0954,6.0957,6.1075,0,6.0703,6.0793,6.0772,6.086,6.0899,6.0854,6.0898,6.091,6.0904,6.0935,6.0928,6.0964,6.0916,6.0925,6.096,6.0954,6.1016,6.0945,6.0989,6.0991,6.0988,6.1143,6.1172,6.1284,6.1089,6.1092,6.1094,0,6.0854,6.0878,6.097,6.0976,6.0991,6.1032,6.1057,6.1088,6.1099,6.1092,6.1109,6.1081,6.1131,6.1072,6.1139,6.1091,6.1107,6.1107,6.1111,6.1114,6.1049,6.1151,6.1319,6.1336,6.1117,6.1115,6.1114,0,6.0968,6.1023,6.1086,6.1096,6.1104,6.1133,6.1138,6.1146,6.1165,6.1187,6.1199,6.1225,6.124,6.1261,6.1241,6.12,6.1311,6.125,6.1306,6.1307,6.1332,6.1331,6.1506,6.1342,6.1342,6.1342,6.1341,0,6.1103,6.1161,6.1137,6.1176,6.1239,6.1213,6.1276,6.1275,6.1283,6.1319,6.1281,6.1316,6.1288,6.132,6.1304,6.1362,6.1368,6.1364,6.1359,6.1368,6.1368,6.1378,6.137,6.1346,6.1345,6.1344,6.1343,0,6.1242,6.1228,6.1293,6.1295,6.1297,6.1344,6.1345,6.138,6.1371,6.1418,6.1427,6.1413,6.1449,6.1431,6.1467,6.1457,6.1532,6.1516,6.1529,6.1525,6.1582,6.1577,6.1769,6.1793,6.1614,6.1616,6.1617,0,6.1329,6.1373,6.138,6.1402,6.141,6.1446,6.1466,6.1441,6.1462,6.1479,6.1512,6.1544,6.1569,6.1628,6.162,6.1648,6.1633,6.1698,6.1637,6.1644,6.1634,6.1632,6.1636,6.1711,6.1713,6.1715,6.1716,0,6.1486,6.1477,6.1507,6.1535,6.1559,6.158,6.1597,6.1617,6.1593,6.1619,6.1655,6.1674,6.1712,6.1745,6.1768,6.1771,6.174,6.1736,6.175,6.176,6.1765,6.1763,6.1563,6.1731,6.173,6.1729,6.1728,6.1727,6.1602,6.1638,6.1649,6.1684,6.1694,6.1711,6.1744,6.174,6.177,6.18,6.1783,6.1825,6.1834,6.1863,6.1871,6.1903,6.1876,6.1897,6.1903,6.1908,6.1916,6.176,6.1907,6.1906,6.1906,6.1905,6.1905,0,6.1756,6.1761,6.1793,6.1819,6.1846,6.1814,6.1831,6.1856,6.1894,6.1906,6.1931,6.1973,6.2004,6.1999,6.2027,6.2054,6.204,6.2062,6.206,6.2061,6.1938,6.1923,6.2073,6.2073,6.2073,6.2073,6.2073,6.2073,6.184,6.1901,6.1893,6.1958,6.1962,6.2004,6.2017,6.2031,6.2041,6.2089,6.2115,6.2112,6.2117,6.2145,6.2172,6.2169,6.2181,6.2209,6.2202,6.2087,6.207,6.2054,6.204,6.2212,6.2212,6.2322,6.2323,6.2324]}]]